Location: Alpha Ridge Park
(39.3209°N, 76.9128°W)
Time: 19:39:19
(UTC-04:00)

S-56A Canister/Altair - Pass Details

Date: 19 May 2019
Orbit: 633 x 2499 km, 38.9° (Epoch: 19 June)

Event Time Altitude Azimuth Distance (km) Brightness Sun altitude
Rises 04:16:48 0° 247° (WSW) 3,798 - -15.8°
Reaches altitude 10° 04:19:05 10° 246° (WSW) 3,038 - -15.4°
Exits shadow 04:20:40 19° 244° (WSW) 2,548 9.6 -15.2°
Maximum altitude 04:26:44 75° 162° (SSE) 1,572 9.0 -14.3°
Drops below altitude 10° 04:38:36 10° 80° (E) 4,549 12.5 -12.6°
Sets 04:42:46 0° 79° (E) 5,778 13.2 -12.0°
